When you browse on this site, cookies collect data to enhance your experience and personalize the content and advertising you see.
Visit our Privacy Policy to learn more. By continuing to use the site, you agree to this use of cookies and data.
  • Em Portugal
  • Lista de países
  • Para 7 dias
  • Temperatura da água
  • Mapas de satélite
  • Mapa do tempo
  • Widgets de tempo
  • user-avatar
    Iniciar Sessão

    Previsão horária em Satif

    Hoje, 25 Maio, Sábado

    Tempo Temperatura Precipitação Vento Pressão Humidade
    00:00 +16°C° 0.9 mm 1 m/s 668 mmHg 84%
    01:00 +15°C° 1.2 mm 2 m/s 668 mmHg 84%
    02:00 +15°C° 1.2 mm 2 m/s 668 mmHg 84%
    03:00 +15°C° 1.2 mm 2 m/s 668 mmHg 85%
    04:00 +15°C° 1.2 mm 2 m/s 668 mmHg 84%
    05:00 +15°C° 1.2 mm 2 m/s 668 mmHg 84%
    06:00 +15°C° 1.2 mm 2 m/s 668 mmHg 83%
    07:00 +15°C° 1.3 mm 2 m/s 668 mmHg 80%
    08:00 +14°C° 1.3 mm 3 m/s 669 mmHg 78%
    09:00 +16°C° 1.3 mm 3 m/s 669 mmHg 75%
    10:00 +16°C° 1.4 mm 3 m/s 669 mmHg 73%
    11:00 +17°C° 1.4 mm 4 m/s 669 mmHg 70%
    12:00 +17°C° 1.4 mm 4 m/s 669 mmHg 68%
    13:00 +16°C° 1.4 mm 5 m/s 668 mmHg 71%
    14:00 +15°C° 1.4 mm 5 m/s 668 mmHg 73%
    15:00 +14°C° 1.4 mm 6 m/s 668 mmHg 76%
    16:00 +14°C° 0.5 mm 5 m/s 668 mmHg 77%
    17:00 +13°C° 0.5 mm 5 m/s 668 mmHg 78%
    18:00 +12°C° 0.5 mm 5 m/s 668 mmHg 79%
    19:00 +12°C° 0.1 mm 4 m/s 668 mmHg 81%
    20:00 +11°C° 0.1 mm 4 m/s 668 mmHg 83%
    21:00 +11°C° 0.1 mm 4 m/s 669 mmHg 86%
    22:00 +10°C° 0 mm 3 m/s 668 mmHg 86%
    23:00 +10°C° 0 mm 3 m/s 668 mmHg 86%

    Amanhã, 26 Maio, Domingo

    Tempo Temperatura Precipitação Vento Pressão Humidade
    00:00 +10°C° 0 mm 3 m/s 668 mmHg 87%
    01:00 +10°C° 0 mm 3 m/s 668 mmHg 88%
    02:00 +9°C° 0 mm 3 m/s 667 mmHg 90%
    03:00 +9°C° 0 mm 3 m/s 667 mmHg 91%
    04:00 +9°C° 0 mm 3 m/s 667 mmHg 90%
    05:00 +9°C° 0 mm 3 m/s 667 mmHg 90%
    06:00 +9°C° 0 mm 3 m/s 667 mmHg 90%
    07:00 +10°C° 0 mm 4 m/s 668 mmHg 85%
    08:00 +10°C° 0 mm 5 m/s 668 mmHg 81%
    09:00 +12°C° 0 mm 5 m/s 669 mmHg 76%
    10:00 +13°C° 0.1 mm 6 m/s 669 mmHg 72%
    11:00 +14°C° 0.1 mm 6 m/s 669 mmHg 69%
    12:00 +15°C° 0.1 mm 7 m/s 669 mmHg 65%
    13:00 +14°C° 0.1 mm 7 m/s 669 mmHg 67%
    14:00 +14°C° 0.1 mm 7 m/s 669 mmHg 69%
    15:00 +12°C° 0.1 mm 7 m/s 669 mmHg 71%
    16:00 +12°C° 0.1 mm 7 m/s 669 mmHg 73%
    17:00 +11°C° 0.1 mm 7 m/s 669 mmHg 75%
    18:00 +11°C° 0.1 mm 6 m/s 669 mmHg 77%
    19:00 +10°C° 0.1 mm 6 m/s 669 mmHg 79%
    20:00 +10°C° 0.1 mm 6 m/s 669 mmHg 81%
    21:00 +9°C° 0.1 mm 5 m/s 670 mmHg 83%
    22:00 +9°C° 0.1 mm 5 m/s 669 mmHg 84%
    23:00 +9°C° 0.1 mm 5 m/s 669 mmHg 85%

    Depois de amanhã, 27 Maio, Segunda-feira

    Tempo Temperatura Precipitação Vento Pressão Humidade
    00:00 +9°C° 0.1 mm 5 m/s 669 mmHg 86%
    01:00 +9°C° 0.1 mm 5 m/s 669 mmHg 87%
    02:00 +9°C° 0.1 mm 5 m/s 668 mmHg 88%
    03:00 +10°C° 0.1 mm 4 m/s 668 mmHg 90%
    04:00 +10°C° 0 mm 4 m/s 668 mmHg 88%
    05:00 +10°C° 0 mm 4 m/s 668 mmHg 87%
    06:00 +10°C° 0 mm 4 m/s 669 mmHg 85%
    07:00 +11°C° 0.1 mm 4 m/s 669 mmHg 81%
    08:00 +12°C° 0.1 mm 4 m/s 669 mmHg 78%
    09:00 +13°C° 0.1 mm 5 m/s 670 mmHg 74%
    10:00 +14°C° 0 mm 5 m/s 670 mmHg 70%
    11:00 +14°C° 0 mm 5 m/s 670 mmHg 66%
    12:00 +15°C° 0 mm 5 m/s 671 mmHg 62%
    13:00 +16°C° 0 mm 5 m/s 670 mmHg 60%
    14:00 +16°C° 0 mm 5 m/s 670 mmHg 59%
    15:00 +16°C° 0 mm 5 m/s 670 mmHg 58%
    16:00 +16°C° 0 mm 5 m/s 670 mmHg 59%
    17:00 +15°C° 0 mm 4 m/s 670 mmHg 61%
    18:00 +15°C° 0 mm 4 m/s 670 mmHg 63%
    19:00 +14°C° 0 mm 3 m/s 670 mmHg 68%
    20:00 +13°C° 0 mm 2 m/s 670 mmHg 73%
    21:00 +12°C° 0 mm 1 m/s 670 mmHg 79%
    22:00 +12°C° 0 mm 1 m/s 670 mmHg 80%
    23:00 +12°C° 0 mm 1 m/s 670 mmHg 81%

    28 Maio, Terça-feira

    Tempo Temperatura Precipitação Vento Pressão Humidade
    00:00 +11°C° 0 mm 1 m/s 670 mmHg 82%
    01:00 +11°C° 0 mm 1 m/s 670 mmHg 81%
    02:00 +11°C° 0 mm 1 m/s 669 mmHg 80%
    03:00 +11°C° 0 mm 1 m/s 669 mmHg 79%
    04:00 +12°C° 0 mm 1 m/s 670 mmHg 73%
    05:00 +13°C° 0 mm 1 m/s 670 mmHg 68%
    06:00 +14°C° 0 mm 1 m/s 670 mmHg 62%
    07:00 +15°C° 0 mm 2 m/s 671 mmHg 54%
    08:00 +17°C° 0 mm 2 m/s 672 mmHg 45%
    09:00 +19°C° 0 mm 2 m/s 672 mmHg 37%
    10:00 +20°C° 0 mm 3 m/s 672 mmHg 35%
    11:00 +22°C° 0 mm 4 m/s 673 mmHg 33%
    12:00 +23°C° 0 mm 5 m/s 673 mmHg 31%
    13:00 +23°C° 0 mm 5 m/s 672 mmHg 30%
    14:00 +25°C° 0 mm 5 m/s 672 mmHg 30%
    15:00 +25°C° 0 mm 5 m/s 672 mmHg 30%
    16:00 +25°C° 0 mm 4 m/s 672 mmHg 35%
    17:00 +24°C° 0 mm 3 m/s 671 mmHg 39%
    18:00 +23°C° 0 mm 2 m/s 671 mmHg 44%
    19:00 +22°C° 0 mm 1 m/s 671 mmHg 49%
    20:00 +20°C° 0 mm 1 m/s 671 mmHg 54%
    21:00 +19°C° 0 mm 1 m/s 671 mmHg 58%
    22:00 +16°C° 0 mm 0 m/s 671 mmHg 60%
    23:00 +16°C° 0 mm 0 m/s 671 mmHg 62%

    29 Maio, Quarta-feira

    Tempo Temperatura Precipitação Vento Pressão Humidade
    00:00 +15°C° 0 mm 0 m/s 671 mmHg 63%
    01:00 +16°C° 0 mm 1 m/s 671 mmHg 64%
    02:00 +16°C° 0 mm 1 m/s 671 mmHg 64%
    03:00 +15°C° 0 mm 1 m/s 670 mmHg 65%
    04:00 +16°C° 0 mm 1 m/s 671 mmHg 67%
    05:00 +16°C° 0 mm 1 m/s 671 mmHg 69%
    06:00 +16°C° 0 mm 1 m/s 672 mmHg 70%
    07:00 +17°C° 0 mm 2 m/s 672 mmHg 65%
    08:00 +19°C° 0 mm 2 m/s 673 mmHg 59%
    09:00 +20°C° 0 mm 2 m/s 673 mmHg 53%
    10:00 +20°C° 0 mm 2 m/s 673 mmHg 53%
    11:00 +21°C° 0 mm 2 m/s 674 mmHg 52%
    12:00 +21°C° 0 mm 3 m/s 674 mmHg 51%
    13:00 +21°C° 0.5 mm 4 m/s 673 mmHg 57%
    14:00 +20°C° 0.5 mm 4 m/s 673 mmHg 62%
    15:00 +19°C° 0.5 mm 5 m/s 673 mmHg 67%
    16:00 +17°C° 0.5 mm 5 m/s 673 mmHg 73%
    17:00 +15°C° 0.5 mm 4 m/s 673 mmHg 80%
    18:00 +14°C° 0.5 mm 4 m/s 673 mmHg 86%
    19:00 +13°C° 0.5 mm 4 m/s 673 mmHg 86%
    20:00 +13°C° 0.5 mm 3 m/s 674 mmHg 86%
    21:00 +13°C° 0.5 mm 3 m/s 674 mmHg 86%
    22:00 +12°C° 0.3 mm 3 m/s 674 mmHg 87%
    23:00 +12°C° 0.3 mm 3 m/s 674 mmHg 88%

    30 Maio, Quinta-feira

    Tempo Temperatura Precipitação Vento Pressão Humidade
    00:00 +12°C° 0.3 mm 3 m/s 674 mmHg 89%
    01:00 +11°C° 0.3 mm 3 m/s 674 mmHg 88%
    02:00 +11°C° 0.3 mm 3 m/s 674 mmHg 87%
    03:00 +11°C° 0.3 mm 3 m/s 674 mmHg 87%
    04:00 +12°C° 0.1 mm 2 m/s 674 mmHg 83%
    05:00 +12°C° 0.1 mm 2 m/s 675 mmHg 79%
    06:00 +10°C° 0.1 mm 2 m/s 675 mmHg 75%
    07:00 +11°C° 0 mm 3 m/s 675 mmHg 69%
    08:00 +12°C° 0 mm 3 m/s 676 mmHg 62%
    09:00 +13°C° 0 mm 3 m/s 676 mmHg 56%
    10:00 +14°C° 0 mm 4 m/s 676 mmHg 54%
    11:00 +15°C° 0 mm 4 m/s 676 mmHg 52%
    12:00 +17°C° 0 mm 4 m/s 677 mmHg 49%
    13:00 +17°C° 0 mm 4 m/s 677 mmHg 50%
    14:00 +18°C° 0 mm 4 m/s 676 mmHg 50%
    15:00 +18°C° 0 mm 4 m/s 676 mmHg 50%
    16:00 +17°C° 0 mm 4 m/s 676 mmHg 54%
    17:00 +15°C° 0 mm 4 m/s 676 mmHg 58%
    18:00 +14°C° 0 mm 4 m/s 676 mmHg 61%
    19:00 +13°C° 0 mm 3 m/s 676 mmHg 67%
    20:00 +13°C° 0 mm 2 m/s 676 mmHg 72%
    21:00 +12°C° 0 mm 2 m/s 676 mmHg 77%
    22:00 +12°C° 0 mm 1 m/s 676 mmHg 79%
    23:00 +11°C° 0 mm 1 m/s 676 mmHg 81%
    Mostrar mais